Flag for Australia Weather past 2 weeks in Newman, Western Australia, Australia

Now
97 °F

Extremely hot.


Feels Like: 95 °F
Forecast: 78 / 97 °F
Wind: 8 mph from Southwest

Location: Nullagine

Current Time: Feb 1, 2015 at 5:51:55 PM

Latest Report: Feb 1, 2015 at 5:00 PM


Visibility: N/A

Pressure: 29.68 "Hg

Humidity: 24%

Dew point: 54 °F

Location of NewmanLocation

Historic Weather in Newman — Graph

°F

Newman temperature yesterday

Maximum temperature yesterday: 101 °F (at 2:00 PM)
Minimum temperature yesterday: 74 °F (at 5:00 AM)
Average temperature yesterday: 87 °F

Past Weeks' High & Low Weather Summary

 TemperatureHumidityPressure
High112 °F (Jan 19, 5:00 PM)99% (Jan 29, 6:00 PM)29.89 "Hg (Jan 29, 6:00 PM)
Low74 °F (Jan 31, 5:00 AM)7% (Jan 17, 3:00 PM)29.50 "Hg (Jan 28, 5:00 PM)
Average92 °F38%29.68 "Hg
* Reported Jan 17 3:00 PM — Feb 1 3:00 PM, Newman, Weather by CustomWeather, © 2014

Note: Actual official high and low records may vary slightly from our data, if they occured in-between our weather recording intervals... More about our weather records

Advertising

Newman weather history for previous 24 hours

 ConditionsComfort  
Time TempWeatherWind HumidityBarometerVisibility
3:00 PM
Feb 1
94 °FScattered clouds.5 mph28%29.72 "HgN/A
2:00 PM93 °FHot.6 mph30%29.74 "HgN/A
12:00 PM90 °FPassing clouds.6 mph34%29.79 "HgN/A
11:00 AM86 °FPleasantly warm.8 mph40%29.81 "HgN/A
9:00 AM82 °FPassing clouds.8 mph55%29.82 "HgN/A
8:00 AM80 °FWarm.10 mph63%29.81 "HgN/A
6:00 AM75 °FMild.7 mph82%29.78 "HgN/A
5:00 AM76 °FMild.10 mph77%29.75 "HgN/A
3:00 AM78 °FOvercast.14 mph71%29.73 "HgN/A
2:00 AM79 °FWarm.15 mph66%29.72 "HgN/A
12:00 AM82 °FWarm.15 mph54%29.71 "HgN/A
11:00 PM
Jan 31
85 °FWarm.12 mph47%29.71 "HgN/A
9:00 PM90 °FPassing clouds.6 mph28%29.66 "HgN/A
8:00 PM93 °FExtremely hot.10 mph24%29.64 "HgN/A
6:00 PM97 °FPassing clouds.14 mph20%29.59 "HgN/A
5:00 PM98 °FExtremely hot.13 mph16%29.59 "HgN/A
Weather by CustomWeather, © 2014

See weather overviewHow to use our weather pages